Location: Unspecified
(41.1637°N, 24.2901°E)
Time: 15:19:59
(UTC+01:00)

ISS - Pass Details

Date: 21 January 2021
Orbit: 418 x 421 km, 51.6° (Epoch: 27 January)

Event Time Altitude Azimuth Distance (km) Brightness Sun altitude
Rises 17:52:44 0° 249° (WSW) 2,361 1.8 -16.2°
Reaches altitude 10° 17:54:53 10° 257° (WSW) 1,500 0.4 -16.6°
Maximum altitude 17:58:07 43° 330° (NNW) 602 -2.9 -17.2°
Enters shadow 17:59:15 31° 19° (NNE) 770 -2.7 -17.4°
